Location: Chuathbaluk
(61.5726°N, 159.2454°W)
Time: 07:29:45
(UTC+00:00)

NUDT-PHONESAT - Pass Details

Date: 20 January 2021
Orbit: 479 x 498 km, 97.4° (Epoch: 08 March)

Event Time Altitude Azimuth Distance (km) Brightness Sun altitude
Rises 05:31:50 0° 211° (SSW) 2,572 ? -22.8°
Reaches altitude 10° 05:34:32 10° 233° (SW) 1,699 ? -23.1°
Maximum altitude 05:36:53 16° 273° (W) 1,367 ? -23.4°
Drops below altitude 10° 05:39:15 10° 313° (NW) 1,715 ? -23.6°
Sets 05:42:00 0° 336° (NNW) 2,608 ? -24.0°
